Date String (YYYY-MM-DD hh:mm:ss) UTC,Instrument flags,absolute air pressure of the measurement (hPa),sample flow rate (lpm),inlet stack bypass flow (lpm),air temperature of the measurement (°C),ambient temperature measured by the external sensor (°C),aerosol sample conditioner tube jacket temperature (°C),OPC LED temperature (°C),internal box temperature (°C),relative humidity of the measurement (%),span deviation,mass concentration of particles derived from Lorenz-Mie calculation of OPC scattering (μg/m³),mass concentration of particles derived from Lorenz-Mie calculation of OPC scattering (μg/m³),mass concentration of particles derived from Lorenz-Mie calculation of OPC scattering (μg/m³)
DateTimeUTC,F1_M11,P_M11,Q1_M11,Q2_M11,T1_M11,T2_M11,T3_M11,T4_M11,T5_M11,U1_M11,ZSPAN_M11,X2_M11,X0_M11,X1_M11
2023-10-18 04:00:00,SystemResetWarning,0827.3,5.00,000.00,028.4,027.3,000.0,036.8,030.2,11.3,0000.0,0001.75,0002.84,0001.26
2023-10-18 04:01:00,SystemResetWarning,0827.2,5.00,000.00,028.5,027.4,000.0,036.8,030.3,11.3,0000.0,0001.73,0002.76,0001.25
2023-10-18 04:02:00,SystemResetWarning,0827.2,4.99,000.00,028.5,027.4,000.0,036.9,030.3,11.3,0000.0,0001.74,0002.80,0001.26
2023-10-18 04:03:00,SystemResetWarning,0827.3,4.99,000.00,028.5,026.9,000.0,036.9,030.3,11.3,0000.0,0001.80,0003.57,0001.28
2023-10-18 04:04:00,SystemResetWarning,0827.2,5.00,000.00,028.4,025.2,000.0,036.8,030.0,11.3,0000.0,0001.86,0003.91,0001.30
2023-10-18 04:05:00,SystemResetWarning,0827.2,5.00,000.00,028.4,024.7,000.0,036.8,029.9,11.4,0000.0,0001.91,0004.05,0001.31
2023-10-18 04:06:00,SystemResetWarning,0827.2,5.01,000.00,028.3,024.8,000.0,036.7,029.7,11.5,0000.0,0001.93,0004.07,0001.32
2023-10-18 04:07:00,SystemResetWarning,0827.2,5.00,000.00,028.2,025.1,000.0,036.8,029.7,11.6,0000.0,0001.95,0004.08,0001.33
2023-10-18 04:08:00,SystemResetWarning,0827.2,5.00,000.00,028.2,025.4,000.0,036.8,029.8,11.6,0000.0,0002.03,0005.04,0001.35
2023-10-18 04:09:00,SystemResetWarning,0827.2,4.99,000.00,028.2,025.7,000.0,036.7,029.8,11.6,0000.0,0002.03,0005.53,0001.36
2023-10-18 04:10:00,SystemResetWarning,0827.3,5.00,000.00,028.2,026.0,000.0,036.7,029.8,11.6,0000.0,0002.03,0005.73,0001.40
2023-10-18 04:11:00,SystemResetWarning,0827.2,5.00,000.00,028.2,026.2,000.0,036.7,029.9,11.6,0000.0,0002.09,0005.85,0001.42
2023-10-18 04:12:00,SystemResetWarning,0827.2,5.00,000.00,028.2,026.4,000.0,036.7,029.9,11.6,0000.0,0002.12,0006.57,0001.45
2023-10-18 04:13:00,SystemResetWarning,0827.2,5.00,000.00,028.2,026.6,000.0,036.7,030.0,11.6,0000.0,0002.14,0006.68,0001.47
2023-10-18 04:14:00,SystemResetWarning,0827.2,5.00,000.00,028.2,026.7,000.0,036.7,030.0,11.7,0000.0,0002.12,0005.94,0001.49
2023-10-18 04:15:00,SystemResetWarning,0827.2,5.00,000.00,028.2,026.8,000.0,036.7,030.0,11.6,0000.0,0002.07,0005.96,0001.49
2023-10-18 04:16:00,SystemResetWarning,0827.1,5.00,000.00,028.3,026.9,000.0,036.8,030.0,11.6,0000.0,0002.02,0005.89,0001.50
2023-10-18 04:17:00,SystemResetWarning,0827.1,5.00,000.00,028.3,027.0,000.0,036.8,030.1,11.6,0000.0,0002.03,0005.91,0001.51
2023-10-18 04:18:00,SystemResetWarning,0827.1,5.00,000.00,028.3,027.0,000.0,036.8,030.1,11.7,0000.0,0002.01,0005.92,0001.53
2023-10-18 04:19:00,SystemResetWarning,0827.1,5.00,000.00,028.3,027.1,000.0,036.8,030.1,11.7,0000.0,0001.93,0004.93,0001.53
2023-10-18 04:20:00,SystemResetWarning,0827.1,5.00,000.00,028.4,027.2,000.0,036.8,030.2,11.6,0000.0,0001.96,0004.52,0001.55
2023-10-18 04:21:00,SystemResetWarning,0827.1,4.99,000.00,028.4,027.2,000.0,036.8,030.2,11.6,0000.0,0001.99,0004.28,0001.54
2023-10-18 04:22:00,SystemResetWarning,0827.1,5.00,000.00,028.4,027.3,000.0,036.8,030.2,11.6,0000.0,0001.97,0004.27,0001.54
2023-10-18 04:23:00,SystemResetWarning,0827.0,4.99,000.00,028.5,027.3,000.0,036.9,030.3,11.6,0000.0,0002.02,0004.88,0001.55
2023-10-18 04:24:00,SystemResetWarning,0827.0,4.99,000.00,028.5,026.4,000.0,036.8,030.2,11.5,0000.0,0002.06,0004.73,0001.55
2023-10-18 04:25:00,SystemResetWarning,0827.0,5.01,000.00,028.4,024.8,000.0,036.8,030.1,11.6,0000.0,0002.07,0004.76,0001.55
2023-10-18 04:26:00,SystemResetWarning,0827.0,5.02,000.00,028.4,024.6,000.0,036.7,029.9,11.6,0000.0,0002.15,0004.69,0001.56
2023-10-18 04:27:00,SystemResetWarning,0827.0,5.00,000.00,028.3,024.8,000.0,036.7,029.7,11.7,0000.0,0002.18,0004.67,0001.56
2023-10-18 04:28:00,SystemResetWarning,0826.9,5.00,000.00,028.2,025.1,000.0,036.8,029.8,11.8,0000.0,0002.15,0004.57,0001.56
2023-10-18 04:29:00,SystemResetWarning,0826.9,5.01,000.00,028.2,025.5,000.0,036.7,029.8,11.8,0000.0,0002.14,0004.51,0001.55
2023-10-18 04:30:00,SystemResetWarning,0826.9,4.99,000.00,028.2,025.8,000.0,036.7,029.8,11.8,0000.0,0002.24,0004.75,0001.57
2023-10-18 04:31:00,SystemResetWarning,0826.9,4.99,000.00,028.2,026.0,000.0,036.7,029.8,11.8,0000.0,0002.25,0004.91,0001.56
2023-10-18 04:32:00,SystemResetWarning,0827.0,5.00,000.00,028.2,026.2,000.0,036.7,029.9,11.7,0000.0,0002.23,0004.85,0001.56
2023-10-18 04:33:00,SystemResetWarning,0826.9,5.00,000.00,028.2,026.4,000.0,036.7,029.9,11.8,0000.0,0002.22,0004.78,0001.57
2023-10-18 04:34:00,SystemResetWarning,0826.9,5.00,000.00,028.2,026.5,000.0,036.7,029.9,11.8,0000.0,0002.20,0003.82,0001.58
2023-10-18 04:35:00,SystemResetWarning,0827.0,5.00,000.00,028.2,026.6,000.0,036.7,030.0,11.8,0000.0,0002.17,0003.66,0001.58
2023-10-18 04:36:00,SystemResetWarning,0827.1,5.00,000.00,028.2,026.7,000.0,036.8,030.0,11.8,0000.0,0002.21,0003.71,0001.60
2023-10-18 04:37:00,SystemResetWarning,0827.1,4.98,000.00,028.3,026.8,000.0,036.8,030.0,11.9,0000.0,0002.17,0003.59,0001.61
2023-10-18 04:38:00,SystemResetWarning,0827.2,4.99,000.00,028.3,026.9,000.0,036.8,030.1,11.8,0000.0,0002.14,0003.43,0001.63
2023-10-18 04:39:00,SystemResetWarning,0827.2,5.00,000.00,028.3,027.0,000.0,036.8,030.1,11.8,0000.0,0002.17,0003.51,0001.63
2023-10-18 04:40:00,SystemResetWarning,0827.2,5.01,000.00,028.3,027.0,000.0,036.8,030.1,11.8,0000.0,0002.23,0003.69,0001.66
2023-10-18 04:41:00,SystemResetWarning,0827.2,5.01,000.00,028.4,027.1,000.0,036.8,030.1,11.8,0000.0,0002.19,0003.52,0001.68
2023-10-18 04:42:00,SystemResetWarning,0827.2,5.00,000.00,028.4,027.1,000.0,036.8,030.1,11.7,0000.0,0002.25,0003.98,0001.68
2023-10-18 04:43:00,SystemResetWarning,0827.3,5.01,000.00,028.4,027.1,000.0,036.8,030.2,11.7,0000.0,0002.32,0004.57,0001.71
2023-10-18 04:44:00,SystemResetWarning,0827.4,5.00,000.00,028.4,027.2,000.0,036.9,030.2,11.7,0000.0,0002.32,0005.13,0001.71
2023-10-18 04:45:00,SystemResetWarning,0827.3,5.00,000.00,028.5,027.2,000.0,036.9,030.2,11.7,0000.0,0002.35,0005.26,0001.72
2023-10-18 04:46:00,SystemResetWarning,0827.2,4.99,000.00,028.5,027.3,000.0,036.9,030.3,11.7,0000.0,0002.38,0005.25,0001.73
2023-10-18 04:47:00,SystemResetWarning,0827.2,4.99,000.00,028.5,026.3,000.0,036.9,030.2,11.7,0000.0,0002.38,0005.19,0001.74
2023-10-18 04:48:00,SystemResetWarning,0827.2,5.01,000.00,028.4,024.9,000.0,036.8,029.9,11.8,0000.0,0002.42,0005.31,0001.75
2023-10-18 04:49:00,SystemResetWarning,0827.1,5.01,000.00,028.3,024.6,000.0,036.8,029.8,11.8,0000.0,0002.49,0005.53,0001.77
2023-10-18 04:50:00,SystemResetWarning,0827.1,4.99,000.00,028.2,024.8,000.0,036.8,029.7,11.9,0000.0,0002.55,0006.12,0001.80
2023-10-18 04:51:00,SystemResetWarning,0827.2,5.00,000.00,028.2,025.1,000.0,036.8,029.7,11.9,0000.0,0002.53,0006.05,0001.81
2023-10-18 04:52:00,SystemResetWarning,0827.2,5.00,000.00,028.1,025.5,000.0,036.8,029.8,12.0,0000.0,0002.59,0006.16,0001.82
2023-10-18 04:53:00,SystemResetWarning,0827.1,5.01,000.00,028.1,025.8,000.0,036.7,029.8,12.0,0000.0,0002.59,0006.76,0001.83
2023-10-18 04:54:00,SystemResetWarning,0827.1,5.00,000.00,028.1,026.0,000.0,036.7,029.9,12.0,0000.0,0002.59,0007.12,0001.83
2023-10-18 04:55:00,SystemResetWarning,0827.1,5.00,000.00,028.2,026.3,000.0,036.7,029.9,11.9,0000.0,0002.65,0007.03,0001.84
2023-10-18 04:56:00,SystemResetWarning,0827.2,5.00,000.00,028.2,026.4,000.0,036.7,029.9,11.9,0000.0,0002.69,0007.18,0001.85
2023-10-18 04:57:00,SystemResetWarning,0827.2,5.00,000.00,028.2,026.6,000.0,036.7,030.0,11.9,0000.0,0002.66,0007.28,0001.87
2023-10-18 04:58:00,SystemResetWarning,0827.3,5.00,000.00,028.2,026.8,000.0,036.7,030.0,11.9,0000.0,0002.65,0007.27,0001.87
2023-10-18 04:59:00,SystemResetWarning,0827.4,5.00,000.00,028.2,026.9,000.0,036.7,030.0,11.9,0000.0,0002.62,0007.20,0001.86
